Location: San Vito
(41.8833°N, 12.9833°E)
Time: 06:25:20
(UTC+00:00)

OAO 3 Rocket - Pass Details

Date: 17 November 2019
Orbit: 630 x 682 km, 35.0° (Epoch: 12 December)

Event Time Altitude Azimuth Distance (km) Brightness Sun altitude
Exits shadow 04:28:49 21° 237° (WSW) 1,484 4.6 -16.9°
Maximum altitude 04:31:24 35° 185° (S) 1,043 4.2 -16.4°
Drops below altitude 10° 04:35:44 10° 119° (ESE) 2,039 6.9 -15.6°
Sets 04:38:13 0° 111° (ESE) 2,940 8.3 -15.2°
